TimeCST,TemperatureF,Dew PointF,Humidity,Sea Level PressureIn,VisibilityMPH,Wind Direction,Wind SpeedMPH,Gust SpeedMPH,PrecipitationIn,Events,Conditions,WindDirDegrees,DateUTC
12:15 AM,23.9,16.2,72,30.46,10.0,NNW,10.4,-,N/A,,Overcast,340,2013-11-22 06:15:00
12:35 AM,23.7,15.8,72,30.46,10.0,NNW,6.9,-,N/A,,Overcast,340,2013-11-22 06:35:00
12:55 AM,23.7,16.0,72,30.46,10.0,NNW,5.8,-,N/A,,Overcast,330,2013-11-22 06:55:00
1:15 AM,23.5,15.6,72,30.47,10.0,NNW,8.1,-,N/A,,Overcast,330,2013-11-22 07:15:00
1:35 AM,23.4,15.4,72,30.47,10.0,NW,6.9,-,N/A,,Overcast,320,2013-11-22 07:35:00
1:55 AM,22.8,14.9,72,30.47,10.0,NNW,8.1,-,N/A,,Overcast,330,2013-11-22 07:55:00
2:15 AM,22.5,14.5,72,30.48,10.0,NNW,8.1,-,N/A,,Overcast,330,2013-11-22 08:15:00
2:35 AM,22.5,14.4,71,30.49,10.0,NW,6.9,-,N/A,,Mostly Cloudy,320,2013-11-22 08:35:00
2:55 AM,22.1,14.4,72,30.49,10.0,NW,4.6,-,N/A,,Overcast,310,2013-11-22 08:55:00
3:15 AM,22.1,14.5,73,30.49,10.0,NNW,6.9,-,N/A,,Overcast,330,2013-11-22 09:15:00
3:35 AM,21.7,14.0,72,30.49,10.0,NNW,4.6,-,N/A,,Scattered Clouds,330,2013-11-22 09:35:00
3:55 AM,21.6,14.4,74,30.48,10.0,NW,6.9,-,N/A,,Clear,320,2013-11-22 09:55:00
4:15 AM,21.2,14.7,76,30.48,10.0,NW,4.6,-,N/A,,Clear,310,2013-11-22 10:15:00
4:35 AM,20.8,14.2,75,30.49,10.0,NW,3.5,-,N/A,,Clear,320,2013-11-22 10:35:00
4:55 AM,19.8,13.6,77,30.49,10.0,NW,3.5,-,N/A,,Clear,310,2013-11-22 10:55:00
5:15 AM,19.2,13.5,78,30.49,10.0,WNW,4.6,-,N/A,,Clear,300,2013-11-22 11:15:00
5:35 AM,18.5,12.9,79,30.50,10.0,WNW,4.6,-,N/A,,Clear,290,2013-11-22 11:35:00
5:55 AM,17.2,12.0,80,30.50,10.0,WNW,3.5,-,N/A,,Clear,290,2013-11-22 11:55:00
6:15 AM,16.9,11.7,80,30.52,10.0,WNW,5.8,-,N/A,,Clear,290,2013-11-22 12:15:00
6:35 AM,16.0,11.1,81,30.52,10.0,WNW,4.6,-,N/A,,Clear,290,2013-11-22 12:35:00
6:55 AM,15.8,11.1,82,30.52,10.0,Calm,Calm,-,N/A,,Clear,0,2013-11-22 12:55:00
7:15 AM,15.6,11.1,82,30.51,10.0,Calm,Calm,-,N/A,,Clear,0,2013-11-22 13:15:00
7:35 AM,14.2,10.6,86,30.52,10.0,Calm,Calm,-,N/A,,Clear,0,2013-11-22 13:35:00
7:55 AM,13.8,11.3,90,30.52,10.0,Calm,Calm,-,N/A,,Clear,0,2013-11-22 13:55:00
8:15 AM,14.7,11.1,86,30.53,10.0,Calm,Calm,-,N/A,,Clear,0,2013-11-22 14:15:00
8:35 AM,16.2,11.8,83,30.51,10.0,Calm,Calm,-,N/A,,Clear,0,2013-11-22 14:35:00
8:55 AM,17.4,12.4,81,30.52,10.0,Calm,Calm,-,N/A,,Clear,0,2013-11-22 14:55:00
9:15 AM,18.9,13.1,78,30.52,10.0,West,4.6,-,N/A,,Clear,280,2013-11-22 15:15:00
9:35 AM,19.2,13.1,77,30.53,10.0,West,3.5,-,N/A,,Clear,280,2013-11-22 15:35:00
9:55 AM,19.9,13.5,76,30.52,10.0,WSW,3.5,-,N/A,,Clear,240,2013-11-22 15:55:00
10:15 AM,20.7,13.8,75,30.52,10.0,SW,3.5,-,N/A,,Clear,230,2013-11-22 16:15:00
10:35 AM,21.6,13.6,72,30.52,10.0,WSW,3.5,-,N/A,,Clear,250,2013-11-22 16:35:00
10:55 AM,22.8,13.6,68,30.52,10.0,WSW,5.8,-,N/A,,Clear,250,2013-11-22 16:55:00
11:15 AM,23.7,13.5,65,30.50,10.0,SW,6.9,-,N/A,,Clear,220,2013-11-22 17:15:00
11:35 AM,24.8,12.7,60,30.48,10.0,South,5.8,-,N/A,,Clear,180,2013-11-22 17:35:00
11:55 AM,25.9,12.4,57,30.46,10.0,SSW,6.9,-,N/A,,Clear,200,2013-11-22 17:55:00
12:15 PM,27.3,12.0,53,30.45,10.0,SSW,6.9,-,N/A,,Clear,210,2013-11-22 18:15:00
12:35 PM,27.5,13.5,56,30.46,10.0,SSW,9.2,-,N/A,,Clear,200,2013-11-22 18:35:00
12:55 PM,28.2,12.6,52,30.46,10.0,SW,12.7,-,N/A,,Clear,230,2013-11-22 18:55:00
1:15 PM,29.3,12.2,49,30.44,10.0,SW,8.1,-,N/A,,Clear,230,2013-11-22 19:15:00
1:35 PM,29.3,11.5,47,30.43,10.0,SSW,9.2,-,N/A,,Clear,210,2013-11-22 19:35:00
1:55 PM,29.7,12.7,49,30.42,10.0,SSW,10.4,-,N/A,,Clear,210,2013-11-22 19:55:00
2:15 PM,29.7,11.7,47,30.41,10.0,WSW,9.2,-,N/A,,Clear,240,2013-11-22 20:15:00
2:35 PM,29.8,11.8,47,30.41,10.0,SW,10.4,17.3,N/A,,Clear,230,2013-11-22 20:35:00
2:55 PM,29.3,12.0,49,30.41,10.0,SW,12.7,17.3,N/A,,Clear,220,2013-11-22 20:55:00
3:15 PM,29.8,11.3,46,30.41,10.0,SW,10.4,-,N/A,,Clear,230,2013-11-22 21:15:00
3:35 PM,29.3,10.6,46,30.40,10.0,SW,9.2,17.3,N/A,,Clear,220,2013-11-22 21:35:00
3:55 PM,29.1,10.8,46,30.41,10.0,WSW,6.9,-,N/A,,Clear,240,2013-11-22 21:55:00
4:15 PM,28.9,8.8,43,30.41,10.0,WSW,9.2,-,N/A,,Clear,240,2013-11-22 22:15:00
4:35 PM,28.2,7.5,42,30.41,10.0,WSW,8.1,-,N/A,,Clear,240,2013-11-22 22:35:00
4:55 PM,27.3,7.5,43,30.41,10.0,WSW,6.9,-,N/A,,Clear,240,2013-11-22 22:55:00
5:15 PM,26.6,7.3,44,30.41,10.0,West,5.8,-,N/A,,Clear,260,2013-11-22 23:15:00
5:35 PM,26.4,7.5,45,30.41,10.0,West,6.9,-,N/A,,Scattered Clouds,280,2013-11-22 23:35:00
5:55 PM,27.3,9.7,48,30.42,10.0,West,10.4,-,N/A,,Mostly Cloudy,280,2013-11-22 23:55:00
6:15 PM,27.0,10.8,51,30.42,10.0,West,10.4,-,N/A,,Overcast,280,2013-11-23 00:15:00
6:35 PM,26.6,11.1,52,30.43,10.0,NW,11.5,17.3,N/A,,Overcast,310,2013-11-23 00:35:00
6:55 PM,25.2,14.9,65,30.43,7.0,WNW,10.4,-,N/A,,Overcast,290,2013-11-23 00:55:00
7:15 PM,24.4,16.3,71,30.44,10.0,WNW,13.8,23.0,N/A,,Overcast,290,2013-11-23 01:15:00
7:35 PM,23.4,16.7,76,30.44,7.0,WNW,12.7,-,N/A,Snow,Light Snow,290,2013-11-23 01:35:00
7:55 PM,23.4,15.6,72,30.44,10.0,NW,10.4,-,N/A,,Overcast,310,2013-11-23 01:55:00
8:15 PM,23.4,15.1,71,30.45,10.0,NW,11.5,17.3,N/A,,Overcast,310,2013-11-23 02:15:00
8:35 PM,22.6,13.5,68,30.45,10.0,WNW,12.7,21.9,N/A,,Overcast,300,2013-11-23 02:35:00
8:55 PM,21.9,14.0,72,30.46,10.0,NW,11.5,19.6,N/A,Snow,Light Snow,310,2013-11-23 02:55:00
9:15 PM,21.0,12.4,69,30.47,10.0,NNW,11.5,17.3,N/A,,Overcast,330,2013-11-23 03:15:00
9:35 PM,20.3,10.8,67,30.48,10.0,NNW,12.7,16.1,N/A,,Overcast,330,2013-11-23 03:35:00
9:55 PM,19.4,8.8,63,30.48,10.0,NNW,11.5,19.6,N/A,,Overcast,330,2013-11-23 03:55:00
10:15 PM,18.9,7.5,61,30.49,10.0,NNW,10.4,20.7,N/A,,Overcast,340,2013-11-23 04:15:00
10:35 PM,18.5,8.4,65,30.50,10.0,NW,15.0,18.4,N/A,Snow,Light Snow,320,2013-11-23 04:35:00
10:55 PM,17.6,7.2,64,30.51,10.0,NW,13.8,18.4,N/A,,Overcast,320,2013-11-23 04:55:00
11:15 PM,16.5,5.7,63,30.52,10.0,NW,15.0,20.7,N/A,,Overcast,310,2013-11-23 05:15:00
11:35 PM,14.4,2.7,60,30.53,10.0,NW,10.4,18.4,N/A,,Mostly Cloudy,320,2013-11-23 05:35:00
11:55 PM,14.0,2.3,60,30.54,10.0,NW,11.5,18.4,N/A,,Mostly Cloudy,320,2013-11-23 05:55:00